Weather History for Defiance, OH

Change the Weather History Date:

Sunday, February 26, 2012

  Actual Average Record
Temperature  
Mean Temperature 32 °F -  
Max Temperature 45 °F 37 °F 71 °F (1944)
Min Temperature 19 °F 19 °F -15 °F (1963)
Degree Days  
Heating Degree Days 33    
Moisture  
Dew Point 20 °F    
Average Humidity 63    
Maximum Humidity 88    
Minimum Humidity 40    
Precipitation  
Precipitation 0.00 in - - ()
Sea Level Pressure  
Sea Level Pressure 30.30 in    
Wind  
Wind Speed 4 mph (South)    
Max Wind Speed 14 mph    
Max Gust Speed 23 mph    
Visibility 9 miles    
Events      
Averages and records for this station are not official NWS values.
T = Trace of Precipitation, MM = Missing Value Source: NWS Daily Summary

Daily Weather History Graph

Daily Weather History Graph

Search for Another Location

Airport:

Trip Planner

Search our weather history database for the weather conditions in past years. The results will help you decide how hot, cold, wet, or windy it might be!

Date:

Astronomy

Feb. 26, 2012 Rise Set
Actual Time 7:17 AM EST 6:24 PM EST
Civil Twilight 6:49 AM EST 6:52 PM EST
Nautical Twilight 6:17 AM EST 7:24 PM EST
Astronomical Twilight 5:45 AM EST 7:56 PM EST
Moon 9:08 AM EST (2/26) 11:25 PM EST (2/26)
Length of Visible Light 12h 02m
Length of Day
11h 06m
Waxing Crescent, 20% of the Moon is Illuminated
Feb 26
Waxing Crescent
Feb 29
First Quarter
Mar 8
Full
Mar 14
Last Quarter
Mar 22
New

Hourly Weather History & Observations

Time (EST) Temp. Windchill Dew Point Humidity Pressure Visibility Wind Dir Wind Speed Gust Speed Precip Events Conditions
12:53 AM 24.1 °F - 18.0 °F 77% 30.39 in 10.0 mi Calm Calm - N/A   Clear
1:53 AM 21.9 °F - 18.0 °F 85% 30.39 in 10.0 mi Calm Calm - N/A   Clear
2:53 AM 21.9 °F - 18.0 °F 85% 30.39 in 8.0 mi Calm Calm - N/A   Clear
3:53 AM 21.0 °F - 18.0 °F 88% 30.40 in 8.0 mi Calm Calm - N/A   Clear
4:53 AM 21.0 °F - 16.0 °F 81% 30.41 in 7.0 mi Calm Calm - N/A   Clear
5:53 AM 19.9 °F - 16.0 °F 85% 30.41 in 8.0 mi Calm Calm - N/A   Clear
6:53 AM 19.9 °F 14.9 °F 16.0 °F 85% 30.42 in 7.0 mi South 3.5 mph - N/A   Clear
7:53 AM 21.0 °F - 18.0 °F 88% 30.44 in 8.0 mi Calm Calm - N/A   Clear
8:53 AM 27.0 °F 20.5 °F 19.9 °F 75% 30.44 in 10.0 mi South 5.8 mph - N/A   Clear
9:53 AM 30.0 °F 21.1 °F 19.0 °F 64% 30.42 in 10.0 mi South 10.4 mph - N/A   Clear
10:53 AM 32.0 °F 23.0 °F 18.0 °F 56% 30.39 in 10.0 mi South 11.5 mph - N/A   Clear
11:53 AM 35.1 °F 26.4 °F 19.9 °F 54% 30.35 in 10.0 mi SSE 12.7 mph 19.6 mph N/A   Clear
12:53 PM 37.0 °F 28.5 °F 21.0 °F 52% 30.32 in 10.0 mi SSE 13.8 mph 17.3 mph N/A   Clear
1:53 PM 39.0 °F 31.4 °F 21.0 °F 49% 30.29 in 10.0 mi South 12.7 mph 19.6 mph N/A   Clear
2:53 PM 42.1 °F 35.7 °F 21.9 °F 45% 30.25 in 10.0 mi South 11.5 mph - N/A   Clear
3:53 PM 44.1 °F 37.7 °F 23.0 °F 43% 30.22 in 10.0 mi South 12.7 mph - N/A   Clear
4:53 PM 45.0 °F 39.3 °F 21.9 °F 40% 30.19 in 10.0 mi SSE 11.5 mph 23.0 mph N/A   Clear
5:53 PM 44.1 °F 38.1 °F 21.9 °F 42% 30.17 in 10.0 mi South 11.5 mph - N/A   Clear
6:53 PM 42.1 °F 37.1 °F 21.9 °F 45% 30.17 in 10.0 mi SSE 8.1 mph - N/A   Clear
7:53 PM 39.9 °F 36.7 °F 23.0 °F 51% 30.17 in 10.0 mi SSW 4.6 mph 18.4 mph N/A   Clear
8:53 PM 37.0 °F - 23.0 °F 57% 30.19 in 10.0 mi Calm Calm - N/A   Clear
9:53 PM 36.0 °F 30.3 °F 23.0 °F 59% 30.18 in 10.0 mi South 6.9 mph - N/A   Clear
10:53 PM 36.0 °F 30.3 °F 23.0 °F 59% 30.17 in 10.0 mi South 6.9 mph - N/A   Clear
11:53 PM 37.0 °F 30.4 °F 24.1 °F 59% 30.15 in 10.0 mi South 9.2 mph - N/A   Clear